ATLAS 5 CENTAUR R/B, 39653

Orbit data source: Space-Track

ATLAS 5 CENTAUR R/B, 39653 is space debris in HEO originally from a launch on Thu, 10 Apr 2014 UTC launched from the Air Force Eastern Test Range (AFETR). Debris objects in space refer to the collection of defunct objects orbiting the Earth. Examples of debris include non-operational satellites, rocket bodies, and fragments generated from explosions, collisions, or faulty payload assembly.

Loading next visibility...
Identifier
39653, 2014-020B
Orbit
HEO
Last TLE update
2 days ago
Origin
Flag of USUnited Launch Alliance/Lockheed Martin (US)
Manufacturer
ULA Decatur
Mission
Spacecraft
Bus & Motor
CENTAUR SEC, RL10-4A-2
Mass
~2,020 kg wet, 2,020 kg dry
Launch date (UTC)
2014-04-10 (11 years ago)
Launch vehicle
Unknown
Launch site
Air Force Eastern Test Range (AFETR)
Object type
Payload
Rocket body
Debris
Shape & HBR
Cyl + 1 Nozzle, 11.7 m
Radar Cross Section
32.260 m²

Expand to show TLE details & history

TLE from 2 days ago
0 ATLAS 5 CENTAUR R/B
1 39653U 14020B   25186.54015645 -.00000066  00000-0  00000-0 0  9998
2 39653  10.9440 271.5195 4865231 240.4832  62.7906  1.86030034 39533
Epoch: 2025-07-05T12:57Z
TLE epoch observation values (Epoch: 2025-07-05T12:57:49.517Z)
Latitude
-0.00001°
Longitude
153.41498°
Altitude
21,730.971 km
Speed
3.753 km/s
True Right ascension
18h 06m 35s
True Declination
0° 00' 00"
Sunlit
Object was in daylight at epoch
Visualization orbit readout
Latitude
-9.34009°
Longitude
95.28333°
Altitude
10,885.547 km
Speed
5.649 km/s
Apparent Right ascension
14h 15m 27s
Apparent Declination
-29° 29' 44"
Sunlit
Object is in daylight
Visualization observer readout
Local Sidereal Time
14:10:36
Azimuth
178.87° S
Elevation
20.579°
Doppler factor
1
Orbital elements
Apogee altitude
35,138.278 km
Perigee altitude
7,962.522 km
Semi-major axis
27,928.537 km
Eccentricity
0.48652
Inclination
10.944°
RAAN
271.5195°
Arg. of periapsis
240.4832°
True anomaly
Unknown
Mean anomaly
62.7906°
Eccentric anomaly
Unknown
Mean motion
0.46502 °/min
Orbital period
774.16 mins
BSTAR
0
Loading maneuver chart data...
Loading SW <> Apogee altitude chart data...
Loading historical data...
Loading historical data...
Loading historical data...
Loading historical data...
Loading historical data...
Loading historical data...
Loading historical data...
Other satellites on launch #20 in the year 2014 (2014-04-10 UTC)

ATLAS 5 CENTAUR R/B Visibility forecast

Observer location: undefined°, undefined°

Span
Click to sort rows by Start time (UTC) header in descending order
Start Az.
Max El. time (UTC)
Max El. Az.
Max El.
End time (UTC)
End Az.
665 mins2025-07-07 02:09:51.374Z178.871° S2025-07-07 10:15:51.374Z134.226° SE35.805°2025-07-07 13:14:51.374Z112.052° ESE
|